DELTA 1 DEB

Satellite information

Favourite Embed

Satellite Type and Status

DEBRISIN ORBIT

Key statistics

Satellite DELTA 1 DEB at a glance.

Uptime

18035

Days in orbit

Revolutions

≈ 13.8

Per day

Orbit

SSO

Sun Synchronous Orbit

Inclination

102.0

Latest

Satellite identification and parameters

Extended collection of information and parameters for DELTA 1 DEB.

Object identification

Identified? True

Debris? True

Object name: DELTA 1 DEB

International designator: 1976-077CF

Object number (NORAD): 10835

Object ID (CCSDS): 10835

Country: UNITED STATES OF AMERICA (US)

Current information (Y/N): Y

RCS size: SMALL

Orbital parameters

Period: 104.578 minutes

Inclination: 102.0377 deg

SMA: 7352.828 km

Apoapsis: 1023.301 km

Periapsis: 926.086 km

RAAN: 42.9034 deg

Eccentricy: 0.00661069

Argument of periapsis: 261.859 deg

Mean anomaly: 123.6794 deg

Mean motion: 13.76959318 rev/day

Mean motion (dot): 0.00017281 rev/day2

B* drag term: 0.017260488 1/REarth

Two-line elements (TLE)

Creation date: Dec. 12, 2025, 10:14 a.m.

Reference frame: TEME

Reference center: EARTH

Epoch: Dec. 12, 2025, 3:13 a.m. UTC

TLE line 0: 0 DELTA 1 DEB

TLE line 1: 1 10835U 76077CF 25346.13449668 .00017281 00000-0 17260-1 0 9991

TLE line 2: 2 10835 102.0377 42.9034 0066107 261.8590 123.6794 13.76959318339203

Live tracking on map

Real-time ground track for satellite DELTA 1 DEB.

In-orbit conjunctions

A list of the most updated potential collisions computed for object DELTA 1 DEB.

Target Orbit TCA Probability of collision Miss distance Type
COSMOS 1634 LEO 2025-11-07 03:45:53 0.000191295 630.0 (m) PAYLOAD
SL-8 R/B LEO 2025-08-28 11:38:34 0.0006771044 70.0 (m) ROCKET BODY
COSMOS 2361 LEO 2025-08-22 18:33:10 0.0001650113 576.0 (m) PAYLOAD
SL-8 R/B LEO 2025-07-12 15:40:02 0.0002333223 99.0 (m) ROCKET BODY

Associated space launch

Meteorological satellite using radiometric imaging

DELTA 1 DEB was lifted into orbit during the mission ‘Delta 2310 | NOAA 5’, on board a Delta 2310 space rocket.

The launch took place on July 29, 1976, 5:07 p.m. from Space Launch Complex 2W.

For more information about the launch, click the button.

Launch to space Delta 2310 | NOAA 5
Delta 2310 | NOAA 5

Agency: N/A

Status: Launch Successful

Launch date: July 29, 1976, 5:07 p.m. UTC

Rocket: Delta 2310

Launch pad: Space Launch Complex 2W

Location: Vandenberg SFB, CA, USA

...

Latest news about this satellite

There are no fresh news available about this satellite. Check back as we update our databases every day.


Newsletter sign-up

Weekly statistics, charts and insights to help you stay on top of the space industry.